SCP
0 0 0 0 0 0 0 0 0 0 0 0 0 0 0 0 0 0 0 0 0 0 0 0 0 0 0 0 0 0 0 0 0 0 0 0 0 0 0 0 0 0 0 0
0 0 0 0 0 0 0 0 0 0 0 0 0 0 0 0 0 0 0 0 0 0 0 0 0 0 0 0 0 0 0 0 0 0 0 0 0 0 0 0 0 0 0 0
0 0 0 0 0 0 0 0 0 0 0 0 0 0 0 0 0 0 0 0 0 0 0 0 0 0 0 0 0 0 0 0 0 0 0 0 0 0 0 0 0 0 0 0
0 0 0 0 0 0 0 0 0 0 0 0 0 0 0 0 0 0 -0 0 0 0 0 0 0 0 0 0 0 0 0 0 0 0 0 0 0 0 0 0 0 0 0 0
0 0 0 0 0 0 0 0 0 0 0 0 0 0 0 0 0 -0 0 0 0 0 0 0 0 0 0 0 0 0 0 0 0 0 0 0 0 0 0 0 0 0 0 0
0 0 0 0 0 0 0 0 0 0 0 0 0 0 0 0 -0 0 0 0 0 0 0 0 0 0 0 0 0 0 0 0 0 0 0 0 0 0 0 0 0 0 0 0
0 0 0 0 0 0 0 0 0 0 0 0 0 0 0 0 0 0 0 0 0 0 0 0 0 0 0 0 0 0 0 0 0 0 0 0 0 0 0 0 0 0 0 0
0 0 0 0 0 0 0 0 0 0 0 0 0 0 0 0 0 0 0 0 0 0 0 0 0 0 0 0 0 0 0 0 0 0 0 0 0 0 0 0 0 0 0 0
0 0 0 0 0 0 0 0 0 0 0 0 0 0 0 0 0 0 0 0 0 0 0 0 -0 0 0 0 0 0 0 0 0 0 0 0 0 0 0 0 0 0 0 0
0 0 0 0 0 0 0 0 0 0 0 0 0 0 0 0 0 0 0 0 0 0 0 0 -0 0 0 0 0 0 0 0 0 0 0 0 0 0 0 0 0 0 0 0
0 0 0 0 0 0 0 0 0 0 0 0 0 0 0 0 0 0 0 0 0 0 -0 -0 -0 -0 -0 0 0 0 0 0 0 0 0 0 0 0 0 0 0 0 0 0
0 0 0 0 0 0 0 0 0 0 0 0 0 0 0 0 0 0 0 0 -0 -0 -0 -0 -0 -0 -0 0 0 0 0 0 0 0 0 0 0 0 0 0 0 0 0 0
0 0 0 0 0 0 0 0 0 0 0 0 0 0 0 0 0 0 0 -0 -0 -0 -0 -0 -0 -0 -0 0 0 0 0 0 0 0 0 0 0 0 0 0 0 0 0 0
0 0 0 0 0 0 0 0 0 0 0 0 0 0 0 0 0 0 0 -0 -0 -0 -0 -0 -0 0 0 0 0 0 0 0 0 0 0 0 0 0 0 0 0 0 0 0
0 0 0 0 0 0 0 0 0 0 0 0 0 0 0 0 0 0 0 -0 -0 -0 0 0 0 0 0 0 0 0 0 0 0 0 0 0 0 0 0 0 0 0 0 0
0 0 0 0 0 0 0 0 0 0 0 0 0 -0 0 0 0 0 0 -0 0 0 0 0 0 0 0 0 0 0 0 0 0 0 0 0 0 0 0 0 0 0 0 0
0 0 0 0 0 0 0 0 0 0 0 0 0 0 0 0 0 0 0 0 0 0 0 0 0 0 0 0 0 0 0 0 0 0 0 0 0 0 0 0 0 0 0 0
0 0 0 0 0 0 0 0 0 0 0 0 0 0 0 0 0 0 0 0 0 0 0 0 0 0 0 0 0 0 0 0 0 0 0 0 0 0 0 0 0 0 0 0
0 0 0 0 0 0 0 0 0 0 0 0 0 0 0 0 0 0 0 0 0 0 0 0 0 0 0 0 0 0 0 0 0 0 0 0 0 0 0 0 0 0 0 0
0 0 0 0 0 0 0 0 0 0 0 0 0 0 0 0 0 0 0 0 0 0 0 0 0 0 0 0 0 0 0 0 0 0 0 0 0 0 0 0 0 0 0 0
0 0 0 0 0 0 0 0 0 0 0 0 0 0 0 0 0 0 0 0 0 0 0 0 0 0 0 0 0 0 0 0 0 0 0 0 0 0 0 0 0 0 0 0
0 0 0 0 0 0 0 0 0 0 0 0 0 0 0 0 0 0 0 0 0 0 0 0 0 0 0 0 0 0 0 0 0 0 0 0 0 0 0 0 0 0 0 0
0 0 0 0 0 0 0 0 0 0 0 0 0 0 0 0 0 0 0 0 -0 -0 -0 0 0 0 0 0 0 0 0 0 0 0 0 0 0 0 0 0 0 0 0 0
0 0 0 0 0 0 0 0 0 0 0 0 0 0 0 0 0 -0 -0 -0 -0 -0 -0 0 0 0 0 0 0 0 0 0 0 0 0 0 0 0 0 0 0 0 0 0
0 -0 0 0 0 0 0 0 0 0 0 0 0 0 0 0 0 -0 -0 -0 -0 -0 -0 -0 -0 0 0 0 0 0 0 0 0 0 0 0 0 0 0 0 0 0 0 0
0 -0 -0 0 -0 -0 0 -0 -0 0 -0 0 0 0 0 0 -0 -0 -0 -0 -0 -0 -0 0 0 0 0 0 0 0 0 0 0 0 0 0 0 0 0 0 0 0 0 0
Wind_Speed_500mb
14 9 22 35 28 7 11 8 11 6 9 10 17 27 27 37 25 43 62 68 75 82 84 77 78 78 78 82 88 77 78 73 76 75 71 66 62 57 52 47 44 43 43 43
6 30 28 10 13 12 12 11 22 11 9 12 12 27 20 17 24 55 65 80 93 95 86 78 75 76 86 86 80 81 86 75 77 75 72 68 61 57 49 48 48 47 46 46
14 6 18 23 12 16 14 25 8 15 5 6 10 24 15 19 31 53 72 88 78 75 76 75 78 78 79 82 84 90 88 79 77 76 72 69 63 58 59 58 55 53 50 50
17 10 9 12 15 14 14 14 11 9 4 9 4 16 11 11 18 14 51 50 63 67 67 67 69 80 85 87 87 91 89 83 81 79 77 76 74 73 70 62 56 55 54 54
16 13 13 10 11 17 11 10 10 5 6 4 5 4 6 2 15 28 8 20 24 27 38 50 60 66 81 88 90 91 89 84 83 81 80 79 80 73 64 59 58 58 58 58
3 1 5 6 6 3 15 10 13 9 5 6 17 16 8 11 19 5 3 14 20 20 16 27 44 58 68 83 89 90 89 86 84 82 85 85 80 74 69 64 64 63 62 61
3 4 2 5 10 8 6 14 1 5 3 15 4 9 24 19 8 1 6 12 21 18 13 10 30 47 60 71 82 87 88 87 84 83 87 84 79 76 70 67 67 68 67 66
19 15 16 9 9 15 14 14 11 16 9 7 8 14 14 5 10 15 16 17 34 34 24 16 6 23 41 62 72 79 84 86 86 85 86 83 82 78 72 68 67 67 66 64
11 8 2 6 4 3 12 13 8 12 5 6 9 14 19 7 11 11 22 23 21 25 25 23 14 10 24 40 54 70 77 82 84 83 84 83 85 80 78 72 66 66 65 64
7 2 3 3 1 1 4 5 7 4 6 9 9 10 13 8 15 13 10 9 14 16 20 23 30 25 24 34 44 61 72 76 77 79 82 85 85 82 80 73 69 68 65 65
4 5 2 4 13 15 6 6 0 6 8 11 3 12 14 16 17 18 14 8 13 16 13 30 28 29 26 32 42 51 66 73 76 76 76 83 86 83 82 74 70 67 65 65
11 6 8 12 1 2 1 9 11 8 11 6 5 16 4 19 18 17 10 13 3 28 31 32 28 27 28 29 36 45 57 66 69 70 73 78 83 85 83 77 72 69 66 65
5 5 4 7 4 6 7 10 7 5 4 11 12 13 4 15 13 15 20 6 30 40 41 39 32 24 24 31 32 38 49 59 64 67 68 74 81 83 83 79 74 69 66 65
5 6 10 19 9 9 8 10 14 8 6 9 25 13 12 10 7 11 9 38 38 40 47 36 32 30 26 33 40 39 44 52 59 63 65 68 75 79 82 81 75 69 66 66
7 10 7 7 5 7 10 9 12 29 28 18 20 32 11 7 12 20 46 39 40 47 43 41 41 38 34 36 41 46 46 52 56 60 61 63 66 74 80 81 74 69 67 64
2 7 6 8 7 9 7 15 16 29 28 26 27 57 11 12 20 23 18 22 29 29 35 38 40 38 33 28 35 44 52 51 53 58 57 56 61 70 77 78 74 69 67 63
6 9 4 9 4 9 19 38 25 14 13 14 28 54 4 10 13 10 16 17 11 25 32 37 40 41 38 30 28 34 42 51 51 53 53 53 55 63 70 74 74 71 68 63
8 3 5 3 6 14 15 1 3 39 43 39 47 47 8 10 9 15 8 5 13 23 28 33 39 37 36 30 21 21 27 44 50 49 49 50 52 57 64 68 72 72 69 65
27 10 6 6 9 16 26 10 12 15 19 29 41 39 18 2 5 3 9 6 14 19 25 30 34 35 33 32 24 16 16 29 43 46 44 46 49 54 59 66 71 73 69 64
11 24 14 7 8 16 10 6 9 7 16 9 17 8 11 14 6 5 6 10 14 18 24 27 27 29 30 25 21 12 11 23 35 40 40 41 45 49 55 60 65 69 66 64
4 6 23 20 11 14 13 11 10 11 7 11 17 19 19 8 6 5 4 10 15 21 25 28 28 29 28 22 14 8 11 21 30 35 36 39 42 46 51 59 66 69 69 66
12 11 8 10 10 17 2 8 6 5 18 37 36 38 37 27 18 10 9 11 15 20 24 27 28 26 22 17 10 6 12 19 25 31 35 39 42 46 50 56 64 65 67 68
12 7 4 9 4 8 36 32 42 40 35 33 27 25 24 24 21 16 17 20 22 22 23 24 25 24 20 13 7 8 12 20 26 32 36 41 45 49 54 60 63 66 67 71
7 12 3 8 8 25 15 33 44 40 30 35 41 34 32 23 9 6 11 15 19 22 22 22 20 21 18 11 6 11 15 22 28 35 41 45 48 54 59 62 63 65 70 72
16 4 4 17 24 22 24 48 49 55 41 38 30 25 24 23 16 10 13 16 15 20 23 23 20 19 15 9 9 15 19 24 32 39 43 47 52 57 61 60 58 61 60 58
10 11 7 21 15 12 39 52 53 56 36 30 38 48 43 30 24 27 23 17 18 20 21 22 19 16 12 11 16 21 24 28 35 43 47 50 54 55 57 59 58 49 54 52
Wind_Direction_500mb
195 161 198 199 198 150 158 195 222 225 210 200 227 245 251 262 256 260 262 260 255 249 254 249 243 237 233 233 237 234 223 226 221 219 217 219 220 218 216 214 216 216 212 208
126 231 216 170 184 212 240 257 261 285 227 183 266 264 248 243 245 246 252 255 256 258 255 249 243 236 235 236 233 224 228 227 223 223 222 223 221 221 219 216 215 214 210 208
191 234 184 175 175 188 221 227 214 233 324 260 338 281 237 254 252 255 257 258 262 260 262 256 242 236 233 232 231 228 229 228 228 225 221 221 220 219 216 213 213 212 208 208
242 224 158 175 210 158 226 195 181 199 133 248 100 288 292 233 266 264 264 273 278 274 265 258 249 234 231 233 232 232 232 230 229 226 222 222 222 219 219 218 212 211 208 207
223 169 173 176 202 165 226 152 169 139 157 353 211 307 246 334 271 256 343 333 323 305 268 258 251 247 236 231 233 231 230 231 231 227 225 223 223 224 225 218 214 212 209 207
274 40 159 188 84 127 144 87 49 54 71 306 186 176 232 191 223 9 43 360 346 347 303 264 256 245 237 232 230 230 230 231 231 228 226 224 225 225 222 218 215 213 211 208
82 226 115 135 97 25 109 111 302 346 360 233 179 191 257 282 261 263 351 359 27 26 13 270 246 241 238 236 234 232 232 230 230 229 228 226 226 227 225 223 219 214 212 210
196 236 170 179 196 174 189 168 168 196 202 248 108 227 250 268 150 123 109 90 66 51 48 38 320 265 258 247 241 237 236 232 230 231 231 227 228 225 224 224 223 221 218 215
165 230 54 58 344 114 183 211 153 101 46 49 220 277 301 171 109 106 101 101 83 69 64 49 34 310 270 257 255 246 243 237 235 235 232 229 229 224 223 223 222 223 219 215
195 90 33 36 352 90 182 192 100 1 153 233 261 267 226 133 160 144 138 143 70 65 67 37 357 336 302 272 262 247 244 244 241 236 234 231 229 225 225 224 221 218 217 215
149 133 77 84 206 179 166 198 141 131 162 182 215 255 221 159 163 156 196 115 53 28 19 338 332 329 311 279 263 252 244 240 239 238 237 232 229 225 226 224 222 219 217 216
203 128 170 196 109 32 256 214 166 146 222 228 152 262 218 149 146 141 156 118 338 335 319 327 324 317 311 294 272 259 248 243 243 242 238 233 230 226 224 223 220 218 217 215
216 221 72 328 360 7 192 196 210 157 101 208 142 262 63 124 131 135 133 348 337 340 340 340 328 310 303 298 286 273 256 247 245 242 239 234 230 226 224 221 219 218 217 216
93 300 206 226 187 139 182 215 201 155 160 159 232 241 174 216 278 148 326 328 340 342 337 331 331 330 313 292 286 278 264 251 246 242 240 236 232 227 224 222 219 218 217 215
152 227 191 249 210 159 193 176 192 207 216 195 257 233 152 236 349 332 317 330 334 334 340 336 325 315 298 283 278 272 263 253 247 242 240 239 235 228 224 221 218 217 215 214
213 259 166 252 202 240 276 230 195 218 239 263 286 275 174 194 276 281 296 316 321 335 337 333 332 334 332 296 275 265 260 254 247 243 242 239 232 228 225 221 217 215 213 212
225 187 111 256 169 112 279 248 209 206 203 178 227 245 134 194 173 207 291 293 325 336 335 338 341 344 343 332 295 272 259 254 247 244 241 238 232 228 225 220 216 213 212 210
188 207 199 181 135 213 244 47 189 219 236 221 246 258 173 159 177 288 266 173 340 333 333 338 340 347 346 346 323 287 262 252 246 241 240 237 231 226 223 218 214 212 210 210
209 183 219 203 217 316 294 177 168 173 257 231 236 251 249 252 254 153 153 356 336 332 337 339 338 341 347 344 342 314 274 248 242 239 240 235 229 224 218 213 210 210 207 204
187 213 202 176 200 214 256 311 126 125 283 309 225 221 160 145 103 257 156 328 332 339 342 342 339 339 340 340 342 335 278 245 236 236 238 233 227 223 218 213 207 204 203 201
139 192 220 227 235 279 248 250 141 99 269 2 71 91 99 74 109 109 300 345 355 351 349 346 338 334 337 341 343 321 260 232 229 229 227 224 222 219 213 204 201 199 195 194
190 187 198 211 215 250 335 96 131 314 34 59 56 56 59 44 14 339 343 356 355 350 345 341 335 332 332 328 329 283 237 219 215 216 216 213 211 208 205 203 194 193 193 189
247 210 206 204 166 41 359 53 61 60 55 42 50 32 19 7 2 341 335 337 340 342 337 333 331 328 330 319 281 247 216 201 198 199 200 199 196 194 192 191 187 182 181 181
326 348 359 335 343 351 6 53 23 3 349 336 331 343 332 316 311 306 314 323 328 328 331 331 327 324 323 307 250 218 200 192 189 185 183 183 185 181 179 179 180 182 179 178
258 69 147 294 302 340 265 315 339 338 328 333 352 350 342 323 321 311 327 323 317 326 326 325 322 319 308 274 217 195 190 187 182 178 174 172 173 172 170 172 174 176 175 181
186 199 259 275 283 276 284 301 317 318 320 329 327 322 331 325 315 314 310 311 314 319 317 312 310 303 277 230 197 185 182 182 185 173 167 166 165 164 163 161 155 163 167 169
Wind_Speed_850mb
14 9 22 35 28 7 11 8 11 6 9 10 17 27 27 37 25 43 62 68 75 82 84 77 78 78 78 82 88 77 78 73 76 75 71 66 62 57 52 47 44 43 43 43
6 30 28 10 13 12 12 11 22 11 9 12 12 27 20 17 24 55 65 80 93 95 86 78 75 76 86 86 80 81 86 75 77 75 72 68 61 57 49 48 48 47 46 46
14 6 18 23 12 16 14 25 8 15 5 6 10 24 15 19 31 53 72 88 78 75 76 75 78 78 79 82 84 90 88 79 77 76 72 69 63 58 59 58 55 53 50 50
17 10 9 12 15 14 14 14 11 9 4 9 4 16 11 11 18 14 51 50 63 67 67 67 69 80 85 87 87 91 89 83 81 79 77 76 74 73 70 62 56 55 54 54
16 13 13 10 11 17 11 10 10 5 6 4 5 4 6 2 15 28 8 20 24 27 38 50 60 66 81 88 90 91 89 84 83 81 80 79 80 73 64 59 58 58 58 58
3 1 5 6 6 3 15 10 13 9 5 6 17 16 8 11 19 5 3 14 20 20 16 27 44 58 68 83 89 90 89 86 84 82 85 85 80 74 69 64 64 63 62 61
3 4 2 5 10 8 6 14 1 5 3 15 4 9 24 19 8 1 6 12 21 18 13 10 30 47 60 71 82 87 88 87 84 83 87 84 79 76 70 67 67 68 67 66
19 15 16 9 9 15 14 14 11 16 9 7 8 14 14 5 10 15 16 17 34 34 24 16 6 23 41 62 72 79 84 86 86 85 86 83 82 78 72 68 67 67 66 64
11 8 2 6 4 3 12 13 8 12 5 6 9 14 19 7 11 11 22 23 21 25 25 23 14 10 24 40 54 70 77 82 84 83 84 83 85 80 78 72 66 66 65 64
7 2 3 3 1 1 4 5 7 4 6 9 9 10 13 8 15 13 10 9 14 16 20 23 30 25 24 34 44 61 72 76 77 79 82 85 85 82 80 73 69 68 65 65
4 5 2 4 13 15 6 6 0 6 8 11 3 12 14 16 17 18 14 8 13 16 13 30 28 29 26 32 42 51 66 73 76 76 76 83 86 83 82 74 70 67 65 65
11 6 8 12 1 2 1 9 11 8 11 6 5 16 4 19 18 17 10 13 3 28 31 32 28 27 28 29 36 45 57 66 69 70 73 78 83 85 83 77 72 69 66 65
5 5 4 7 4 6 7 10 7 5 4 11 12 13 4 15 13 15 20 6 30 40 41 39 32 24 24 31 32 38 49 59 64 67 68 74 81 83 83 79 74 69 66 65
5 6 10 19 9 9 8 10 14 8 6 9 25 13 12 10 7 11 9 38 38 40 47 36 32 30 26 33 40 39 44 52 59 63 65 68 75 79 82 81 75 69 66 66
7 10 7 7 5 7 10 9 12 29 28 18 20 32 11 7 12 20 46 39 40 47 43 41 41 38 34 36 41 46 46 52 56 60 61 63 66 74 80 81 74 69 67 64
2 7 6 8 7 9 7 15 16 29 28 26 27 57 11 12 20 23 18 22 29 29 35 38 40 38 33 28 35 44 52 51 53 58 57 56 61 70 77 78 74 69 67 63
6 9 4 9 4 9 19 38 25 14 13 14 28 54 4 10 13 10 16 17 11 25 32 37 40 41 38 30 28 34 42 51 51 53 53 53 55 63 70 74 74 71 68 63
8 3 5 3 6 14 15 1 3 39 43 39 47 47 8 10 9 15 8 5 13 23 28 33 39 37 36 30 21 21 27 44 50 49 49 50 52 57 64 68 72 72 69 65
27 10 6 6 9 16 26 10 12 15 19 29 41 39 18 2 5 3 9 6 14 19 25 30 34 35 33 32 24 16 16 29 43 46 44 46 49 54 59 66 71 73 69 64
11 24 14 7 8 16 10 6 9 7 16 9 17 8 11 14 6 5 6 10 14 18 24 27 27 29 30 25 21 12 11 23 35 40 40 41 45 49 55 60 65 69 66 64
4 6 23 20 11 14 13 11 10 11 7 11 17 19 19 8 6 5 4 10 15 21 25 28 28 29 28 22 14 8 11 21 30 35 36 39 42 46 51 59 66 69 69 66
12 11 8 10 10 17 2 8 6 5 18 37 36 38 37 27 18 10 9 11 15 20 24 27 28 26 22 17 10 6 12 19 25 31 35 39 42 46 50 56 64 65 67 68
12 7 4 9 4 8 36 32 42 40 35 33 27 25 24 24 21 16 17 20 22 22 23 24 25 24 20 13 7 8 12 20 26 32 36 41 45 49 54 60 63 66 67 71
7 12 3 8 8 25 15 33 44 40 30 35 41 34 32 23 9 6 11 15 19 22 22 22 20 21 18 11 6 11 15 22 28 35 41 45 48 54 59 62 63 65 70 72
16 4 4 17 24 22 24 48 49 55 41 38 30 25 24 23 16 10 13 16 15 20 23 23 20 19 15 9 9 15 19 24 32 39 43 47 52 57 61 60 58 61 60 58
10 11 7 21 15 12 39 52 53 56 36 30 38 48 43 30 24 27 23 17 18 20 21 22 19 16 12 11 16 21 24 28 35 43 47 50 54 55 57 59 58 49 54 52
Wind_Direction_850mb
195 161 198 199 198 150 158 195 222 225 210 200 227 245 251 262 256 260 262 260 255 249 254 249 243 237 233 233 237 234 223 226 221 219 217 219 220 218 216 214 216 216 212 208
126 231 216 170 184 212 240 257 261 285 227 183 266 264 248 243 245 246 252 255 256 258 255 249 243 236 235 236 233 224 228 227 223 223 222 223 221 221 219 216 215 214 210 208
191 234 184 175 175 188 221 227 214 233 324 260 338 281 237 254 252 255 257 258 262 260 262 256 242 236 233 232 231 228 229 228 228 225 221 221 220 219 216 213 213 212 208 208
242 224 158 175 210 158 226 195 181 199 133 248 100 288 292 233 266 264 264 273 278 274 265 258 249 234 231 233 232 232 232 230 229 226 222 222 222 219 219 218 212 211 208 207
223 169 173 176 202 165 226 152 169 139 157 353 211 307 246 334 271 256 343 333 323 305 268 258 251 247 236 231 233 231 230 231 231 227 225 223 223 224 225 218 214 212 209 207
274 40 159 188 84 127 144 87 49 54 71 306 186 176 232 191 223 9 43 360 346 347 303 264 256 245 237 232 230 230 230 231 231 228 226 224 225 225 222 218 215 213 211 208
82 226 115 135 97 25 109 111 302 346 360 233 179 191 257 282 261 263 351 359 27 26 13 270 246 241 238 236 234 232 232 230 230 229 228 226 226 227 225 223 219 214 212 210
196 236 170 179 196 174 189 168 168 196 202 248 108 227 250 268 150 123 109 90 66 51 48 38 320 265 258 247 241 237 236 232 230 231 231 227 228 225 224 224 223 221 218 215
165 230 54 58 344 114 183 211 153 101 46 49 220 277 301 171 109 106 101 101 83 69 64 49 34 310 270 257 255 246 243 237 235 235 232 229 229 224 223 223 222 223 219 215
195 90 33 36 352 90 182 192 100 1 153 233 261 267 226 133 160 144 138 143 70 65 67 37 357 336 302 272 262 247 244 244 241 236 234 231 229 225 225 224 221 218 217 215
149 133 77 84 206 179 166 198 141 131 162 182 215 255 221 159 163 156 196 115 53 28 19 338 332 329 311 279 263 252 244 240 239 238 237 232 229 225 226 224 222 219 217 216
203 128 170 196 109 32 256 214 166 146 222 228 152 262 218 149 146 141 156 118 338 335 319 327 324 317 311 294 272 259 248 243 243 242 238 233 230 226 224 223 220 218 217 215
216 221 72 328 360 7 192 196 210 157 101 208 142 262 63 124 131 135 133 348 337 340 340 340 328 310 303 298 286 273 256 247 245 242 239 234 230 226 224 221 219 218 217 216
93 300 206 226 187 139 182 215 201 155 160 159 232 241 174 216 278 148 326 328 340 342 337 331 331 330 313 292 286 278 264 251 246 242 240 236 232 227 224 222 219 218 217 215
152 227 191 249 210 159 193 176 192 207 216 195 257 233 152 236 349 332 317 330 334 334 340 336 325 315 298 283 278 272 263 253 247 242 240 239 235 228 224 221 218 217 215 214
213 259 166 252 202 240 276 230 195 218 239 263 286 275 174 194 276 281 296 316 321 335 337 333 332 334 332 296 275 265 260 254 247 243 242 239 232 228 225 221 217 215 213 212
225 187 111 256 169 112 279 248 209 206 203 178 227 245 134 194 173 207 291 293 325 336 335 338 341 344 343 332 295 272 259 254 247 244 241 238 232 228 225 220 216 213 212 210
188 207 199 181 135 213 244 47 189 219 236 221 246 258 173 159 177 288 266 173 340 333 333 338 340 347 346 346 323 287 262 252 246 241 240 237 231 226 223 218 214 212 210 210
209 183 219 203 217 316 294 177 168 173 257 231 236 251 249 252 254 153 153 356 336 332 337 339 338 341 347 344 342 314 274 248 242 239 240 235 229 224 218 213 210 210 207 204
187 213 202 176 200 214 256 311 126 125 283 309 225 221 160 145 103 257 156 328 332 339 342 342 339 339 340 340 342 335 278 245 236 236 238 233 227 223 218 213 207 204 203 201
139 192 220 227 235 279 248 250 141 99 269 2 71 91 99 74 109 109 300 345 355 351 349 346 338 334 337 341 343 321 260 232 229 229 227 224 222 219 213 204 201 199 195 194
190 187 198 211 215 250 335 96 131 314 34 59 56 56 59 44 14 339 343 356 355 350 345 341 335 332 332 328 329 283 237 219 215 216 216 213 211 208 205 203 194 193 193 189
247 210 206 204 166 41 359 53 61 60 55 42 50 32 19 7 2 341 335 337 340 342 337 333 331 328 330 319 281 247 216 201 198 199 200 199 196 194 192 191 187 182 181 181
326 348 359 335 343 351 6 53 23 3 349 336 331 343 332 316 311 306 314 323 328 328 331 331 327 324 323 307 250 218 200 192 189 185 183 183 185 181 179 179 180 182 179 178
258 69 147 294 302 340 265 315 339 338 328 333 352 350 342 323 321 311 327 323 317 326 326 325 322 319 308 274 217 195 190 187 182 178 174 172 173 172 170 172 174 176 175 181
186 199 259 275 283 276 284 301 317 318 320 329 327 322 331 325 315 314 310 311 314 319 317 312 310 303 277 230 197 185 182 182 185 173 167 166 165 164 163 161 155 163 167 169